Regional Weather Roundup
Issued by NWS Jackson, KY

Home | Current Version | Previous Version | Text Only | Print | Product List | Glossary On
Versions: 1 2 3 4 5 6 7 8 9 10 11 12 13 14 15 16 17 18 19 20 21 22 23 24 25 26 27 28 29 30 31 32 33 34 35 36 37 38 39 40 41 42 43 44 45 46 47 48 49 50
000
ASUS43 KJKL 290210
RWRJKL

EAST KENTUCKY HOURLY WEATHER ROUNDUP
NATIONAL WEATHER SERVICE JACKSON KY
1000 PM EDT THU MAY 28 2015

NOTE: "FAIR" INDICATES FEW OR NO CLOUDS BELOW 12,000 FEET WITH
NO SIGNIFICANT WEATHER AND/OR OBSTRUCTIONS TO VISIBILITY.

* THESE REPORTS ARE NOT UNDER NWS QUALITY CONTROL AND MAY NOT
  REPORT WEATHER SUCH AS PRECIPITATION AND FOG.

KYZ079-080-083-085-087-088-110-112-115-119-120-290300
...EASTERN KENTUCKY...

CITY           SKY/WX    TMP DP  RH WIND       PRES   REMARKS
JACKSON        MOCLDY    73  67  81 CALM      30.22R
LONDON         CLOUDY    72  65  78 CALM      30.20R
SOMERSET*      MOCLDY    64  64 100 CALM      30.20S
MONTICELLO*    PTCLDY    67  67 100 CALM      30.21S
MIDDLESBORO*   CLOUDY    71  68  90 CALM      30.22R
HARLAN APT*    CLOUDY    68  64  88 E5        30.23R
HAZARD APT*    CLOUDY    72  70  94 CALM      30.22R
BLACK MTN*       N/A    N/A N/A N/A S2          N/A
PIKEVILLE APT* LGT RAIN  70  64  83 S3        30.24R
BIG SANDY*     CLOUDY    73  67  79 CALM      30.22R
MOREHEAD APT*  MOCLDY    72  66  83 CALM      30.21R
$$

KYZ035-036-041-042-044-050-067-078-099-290300
...CENTRAL KENTUCKY...

CITY           SKY/WX    TMP DP  RH WIND       PRES   REMARKS
MT STERLING*   CLOUDY    70  68  94 CALM      30.21R
FLEMING/MASON* CLOUDY    73  68  83 CALM      30.20R
DANVILLE*      CLOUDY    68  64  88 CALM      30.20R
RICHMOND*      CLOUDY    72  66  83 CALM      30.19R
LEXINGTON      CLOUDY    72  65  78 CALM      30.19R
FRANKFORT      CLOUDY    73  65  75 S5        30.17R
$$

KYZ091>093-OHZ055-061-077-WVZ005-015-034-035-042-290300
...SOUTHERN OHIO/WEST VIRGINIA...

CITY           SKY/WX    TMP DP  RH WIND       PRES   REMARKS
COVINGTON      PTCLDY    71  64  78 S5        30.17R
COLUMBUS       MOCLDY    74  62  66 E3        30.18R
DAYTON         PTCLDY    77  62  59 S5        30.18R
WILMINGTON     CLEAR     72  62  71 SE3       30.18R
HUNTINGTON     MOCLDY    72  64  76 CALM      30.18R
CHARLESTON     PTCLDY    71  66  84 CALM      30.19R
PINEVILLE*     PTCLDY    68  66  94 MISG      30.30R
BECKLEY        CLOUDY    71  60  68 SE5       30.29R
BLUEFIELD      CLOUDY    70  58  65 S3        30.30R
$$

VAZ002-007-008-TNZ017-027-036-066-071-290300
...SOUTHWEST VIRGINIA/EAST TENNESSEE...

CITY           SKY/WX    TMP DP  RH WIND       PRES   REMARKS
WISE*          LGT RAIN  64  63  94 CALM      30.29S
JONESVILLE*    CLOUDY    72  64  78 N3        30.25R
ABINGDON*      CLOUDY    68  64  85 CALM      30.26S
BRISTOL        CLOUDY    68  65  90 CALM      30.24R
KNOXVILLE      LGT RAIN  75  66  73 SW8       30.19R
OAK RIDGE      CLOUDY    74  63  68 W8        30.22R
CROSSVILLE     CLOUDY    68  60  75 S3        30.24R
NASHVILLE      MOCLDY    76  67  73 CALM      30.13R
$$

...KEY TO REMARKS...
VSB - VISIBILITY IN MILES
WCI - WIND CHILL INDEX
HX  - HEAT INDEX

$$



USA.gov is the U.S. government's official web portal to all federal, state and local government web resources and services.